THOR ABLESTAR DEB, 336

Orbit data source: Space-Track

THOR ABLESTAR DEB, 336 is space debris in LEO originally from a launch on Thu, 29 Jun 1961 UTC launched from the Air Force Eastern Test Range (AFETR). Debris objects in space refer to the collection of defunct objects orbiting the Earth. Examples of debris include non-operational satellites, rocket bodies, and fragments generated from explosions, collisions, or faulty payload assembly.

Loading next visibility...
Identifier
336, 1961-015DN
Orbit
LEO
Country
Flag of USUS
Related business
Manufacturer
Unknown
Mission
Spacecraft
Bus & Motor
Unknown
Mass
Unknown
Launch date (UTC)
1961-06-29 (64 years ago)
Launch vehicle
Unknown
Launch site
Air Force Eastern Test Range (AFETR)
Object type
Payload
Rocket body
Debris
Shape & HBR
Unknown
Radar Cross Section
Small (<0.1 m²)

Expand to show TLE details & history
Last TLE update: 15 hours ago

TLE from 15 hours ago
0 THOR ABLESTAR DEB
1 00336U 61015DN  25260.98562660  .00000071  00000-0  16012-3 0  9993
2 00336  67.0284 108.8275 0080636 326.8649 144.3889 13.69114060201936
Epoch: 2025-09-17T23:39Z
TLE epoch observation values (Epoch: 2025-09-17T23:39:18.138Z)
Latitude
58.86561°
Longitude
-107.42909°
Altitude
1,060.446 km
Speed
7.303 km/s
True Right ascension
16h 18m 12s
True Declination
58° 43' 10"
Sunlit
Object was in daylight at epoch
Visualization orbit readout
Latitude
Unknown
Longitude
Unknown
Altitude
Unknown
Speed
Unknown
Apparent Right ascension
Unknown
Apparent Declination
Unknown
Sunlit
N/A
Visualization observer readout
Local Sidereal Time
07:07:49
Azimuth
Unknown
Elevation
Unknown
Doppler factor
Unknown
Orbital elements
Apogee altitude
1,060.641 km
Perigee altitude
941.634 km
Semi-major axis
7,379.275 km
Eccentricity
0.00806
Inclination
67.0284°
RAAN
108.8275°
Arg. of periapsis
326.8649°
True anomaly
144.92256°
Mean anomaly
144.3889°
Eccentric anomaly
144.65616°
Mean motion
3.42391 °/min
Orbital period
105.14 mins
BSTAR
0.00016012
Loading maneuver chart data...
Computing Atmospheric mass density...

Documentation

Showing up to 5 results
|